START_TIME,STEP,MOV.,E45,t_acc.,ALAR?,t_acc.,A12,t_acc.,A24,t_acc.
1979-07-13 12:00:26.630 ,0,0,0.,4.8,624.,4.8,0.,4.8,0.,4.8
1979-07-13 12:00:31.430 ,0,0,0.,4.8,784.,4.8,0.,4.8,0.,4.8
1979-07-13 12:00:36.230 ,0,0,0.,4.8,592.,4.8,0.,4.8,0.,4.8
1979-07-13 12:00:41.030 ,0,0,0.,4.8,576.,4.8,0.,4.8,0.,4.8
1979-07-13 12:00:45.830 ,0,0,0.,4.8,368.,4.8,0.,4.8,0.,4.8
1979-07-13 12:00:50.630 ,1,0,0.,4.8,688.,4.8,0.,4.8,0.,4.8
1979-07-13 12:00:55.430 ,1,0,0.,4.8,100.,4.8,0.,4.8,0.,4.8
1979-07-13 12:01:00.230 ,1,0,0.,4.8,216.,4.8,0.,4.8,0.,4.8
1979-07-13 12:01:05.030 ,1,0,0.,4.8,4032.,4.8,0.,4.8,0.,4.8
1979-07-13 12:01:09.830 ,1,0,0.,4.8,3904.,4.8,0.,4.8,0.,4.8
1979-07-13 12:01:14.630 ,1,0,0.,4.8,3712.,4.8,0.,4.8,0.,4.8
1979-07-13 12:01:19.430 ,1,0,0.,4.8,3200.,4.8,0.,4.8,0.,4.8
1979-07-13 12:01:24.230 ,1,0,0.,4.8,3072.,4.8,0.,4.8,0.,4.8
1979-07-13 12:01:29.030 ,1,0,0.,4.8,2816.,4.8,0.,4.8,0.,4.8
1979-07-13 12:01:33.830 ,1,0,0.,4.8,2560.,4.8,0.,4.8,0.,4.8
1979-07-13 12:01:38.630 ,2,0,0.,4.8,2496.,4.8,0.,4.8,0.,4.8
1979-07-13 12:01:43.430 ,2,0,0.,4.8,2240.,4.8,0.,4.8,0.,4.8
1979-07-13 12:01:48.230 ,2,0,0.,4.8,2368.,4.8,0.,4.8,0.,4.8
1979-07-13 12:01:53.030 ,2,0,0.,4.8,2112.,4.8,0.,4.8,0.,4.8
1979-07-13 12:01:57.830 ,2,0,0.,4.8,2048.,4.8,0.,4.8,0.,4.8
1979-07-13 12:02:02.630 ,2,0,0.,4.8,2560.,4.8,0.,4.8,0.,4.8
1979-07-13 12:02:07.430 ,2,0,0.,4.8,2432.,4.8,0.,4.8,0.,4.8
1979-07-13 12:02:12.230 ,2,0,0.,4.8,2880.,4.8,0.,4.8,0.,4.8
1979-07-13 12:02:17.030 ,2,0,0.,4.8,2816.,4.8,0.,4.8,0.,4.8
1979-07-13 12:02:21.830 ,2,0,0.,4.8,2624.,4.8,1.,4.8,0.,4.8
1979-07-13 12:02:26.630 ,3,0,0.,4.8,2496.,4.8,0.,4.8,0.,4.8
1979-07-13 12:02:31.430 ,3,0,0.,4.8,2496.,4.8,0.,4.8,0.,4.8
1979-07-13 12:02:36.230 ,3,0,0.,4.8,2048.,4.8,0.,4.8,0.,4.8
1979-07-13 12:02:41.030 ,3,0,0.,4.8,1664.,4.8,0.,4.8,0.,4.8
1979-07-13 12:02:45.830 ,3,0,0.,4.8,880.,4.8,0.,4.8,0.,4.8
1979-07-13 12:02:50.630 ,3,0,0.,4.8,1120.,4.8,0.,4.8,0.,4.8
1979-07-13 12:02:55.430 ,3,0,0.,4.8,832.,4.8,0.,4.8,0.,4.8
1979-07-13 12:03:00.230 ,3,0,0.,4.8,1120.,4.8,0.,4.8,0.,4.8
1979-07-13 12:03:05.030 ,3,0,0.,4.8,944.,4.8,0.,4.8,0.,4.8
1979-07-13 12:03:09.830 ,3,0,0.,4.8,576.,4.8,0.,4.8,0.,4.8
1979-07-13 12:03:14.630 ,4,0,0.,4.8,3968.,4.8,0.,4.8,0.,4.8
1979-07-13 12:03:19.430 ,4,0,0.,4.8,3264.,4.8,0.,4.8,0.,4.8
1979-07-13 12:03:24.230 ,4,0,0.,4.8,2496.,4.8,0.,4.8,0.,4.8
1979-07-13 12:03:29.030 ,4,0,0.,4.8,1504.,4.8,0.,4.8,0.,4.8
1979-07-13 12:03:33.830 ,4,0,0.,4.8,784.,4.8,0.,4.8,0.,4.8
1979-07-13 12:03:38.630 ,4,0,0.,4.8,624.,4.8,0.,4.8,0.,4.8
1979-07-13 12:03:43.430 ,4,0,0.,4.8,640.,4.8,0.,4.8,0.,4.8
1979-07-13 12:03:48.230 ,4,0,0.,4.8,528.,4.8,0.,4.8,0.,4.8
1979-07-13 12:03:53.030 ,4,0,0.,4.8,848.,4.8,0.,4.8,0.,4.8
1979-07-13 12:03:57.830 ,4,0,0.,4.8,192.,4.8,0.,4.8,0.,4.8
1979-07-13 12:04:02.630 ,5,0,0.,4.8,3904.,4.8,0.,4.8,0.,4.8
1979-07-13 12:04:07.430 ,5,0,0.,4.8,3648.,4.8,0.,4.8,0.,4.8
1979-07-13 12:04:12.230 ,5,0,0.,4.8,3776.,4.8,0.,4.8,0.,4.8
1979-07-13 12:04:17.030 ,5,0,0.,4.8,3776.,4.8,0.,4.8,0.,4.8
1979-07-13 12:04:21.830 ,5,0,0.,4.8,3648.,4.8,0.,4.8,0.,4.8
1979-07-13 12:04:26.630 ,5,0,0.,4.8,3840.,4.8,0.,4.8,0.,4.8
1979-07-13 12:04:31.430 ,5,0,0.,4.8,3904.,4.8,0.,4.8,0.,4.8
1979-07-13 12:04:36.230 ,5,0,0.,4.8,3776.,4.8,0.,4.8,0.,4.8
1979-07-13 12:04:41.030 ,5,0,0.,4.8,3712.,4.8,0.,4.8,0.,4.8
1979-07-13 12:04:45.830 ,5,0,0.,4.8,3712.,4.8,0.,4.8,0.,4.8
1979-07-13 12:04:50.630 ,6,0,0.,4.8,3968.,4.8,0.,4.8,0.,4.8
1979-07-13 12:04:55.430 ,6,0,0.,4.8,3712.,4.8,0.,4.8,0.,4.8
1979-07-13 12:05:00.230 ,6,0,0.,4.8,3520.,4.8,0.,4.8,0.,4.8
1979-07-13 12:05:05.030 ,6,0,0.,4.8,3712.,4.8,0.,4.8,0.,4.8
1979-07-13 12:05:09.830 ,6,0,0.,4.8,3776.,4.8,0.,4.8,0.,4.8
1979-07-13 12:05:14.630 ,6,0,0.,4.8,3648.,4.8,0.,4.8,0.,4.8
1979-07-13 12:05:19.430 ,6,0,0.,4.8,3712.,4.8,0.,4.8,0.,4.8
1979-07-13 12:05:24.230 ,6,0,0.,4.8,3648.,4.8,0.,4.8,0.,4.8
1979-07-13 12:05:29.030 ,6,0,0.,4.8,3392.,4.8,0.,4.8,0.,4.8
1979-07-13 12:05:33.830 ,6,0,0.,4.8,3328.,4.8,0.,4.8,0.,4.8
1979-07-13 12:05:38.630 ,7,0,0.,4.8,3136.,4.8,0.,4.8,0.,4.8
1979-07-13 12:05:43.430 ,7,0,0.,4.8,2944.,4.8,0.,4.8,0.,4.8
1979-07-13 12:05:48.230 ,7,0,0.,4.8,2816.,4.8,0.,4.8,0.,4.8
1979-07-13 12:05:53.030 ,7,0,0.,4.8,3008.,4.8,0.,4.8,0.,4.8
1979-07-13 12:05:57.830 ,7,0,0.,4.8,3136.,4.8,0.,4.8,0.,4.8
1979-07-13 12:06:02.630 ,7,0,0.,4.8,3264.,4.8,0.,4.8,0.,4.8
1979-07-13 12:06:07.430 ,7,0,0.,4.8,3520.,4.8,0.,4.8,0.,4.8
1979-07-13 12:06:12.230 ,7,0,0.,4.8,3456.,4.8,0.,4.8,0.,4.8
1979-07-13 12:06:17.030 ,7,0,0.,4.8,3520.,4.8,0.,4.8,0.,4.8
1979-07-13 12:06:21.830 ,7,0,0.,4.8,3584.,4.8,0.,4.8,0.,4.8
1979-07-13 12:06:26.630 ,7,0,0.,4.8,3584.,4.8,0.,4.8,0.,4.8
1979-07-13 12:06:31.430 ,7,0,0.,4.8,3776.,4.8,0.,4.8,0.,4.8
1979-07-13 12:06:36.230 ,7,0,0.,4.8,36.,4.8,0.,4.8,0.,4.8
1979-07-13 12:06:41.030 ,7,0,0.,4.8,94.,4.8,0.,4.8,0.,4.8
1979-07-13 12:06:45.830 ,7,0,0.,4.8,168.,4.8,0.,4.8,0.,4.8
1979-07-13 12:06:50.630 ,7,0,0.,4.8,102.,4.8,0.,4.8,0.,4.8
1979-07-13 12:06:55.430 ,7,0,0.,4.8,188.,4.8,0.,4.8,0.,4.8
1979-07-13 12:07:00.230 ,7,0,0.,4.8,488.,4.8,0.,4.8,0.,4.8
1979-07-13 12:07:05.030 ,7,0,0.,4.8,752.,4.8,0.,4.8,0.,4.8
1979-07-13 12:07:09.830 ,7,0,0.,4.8,1312.,4.8,0.,4.8,0.,4.8
1979-07-13 12:07:14.630 ,6,0,0.,4.8,1792.,4.8,0.,4.8,0.,4.8
1979-07-13 12:07:19.430 ,6,0,0.,4.8,1696.,4.8,0.,4.8,0.,4.8
1979-07-13 12:07:24.230 ,6,0,0.,4.8,1792.,4.8,0.,4.8,0.,4.8
1979-07-13 12:07:29.030 ,6,0,0.,4.8,1312.,4.8,0.,4.8,0.,4.8
1979-07-13 12:07:33.830 ,6,0,0.,4.8,976.,4.8,0.,4.8,0.,4.8
1979-07-13 12:07:38.630 ,6,0,0.,4.8,1120.,4.8,0.,4.8,0.,4.8
1979-07-13 12:07:43.430 ,6,0,0.,4.8,472.,4.8,0.,4.8,0.,4.8
1979-07-13 12:07:48.230 ,6,0,0.,4.8,240.,4.8,0.,4.8,0.,4.8
1979-07-13 12:07:53.030 ,6,0,0.,4.8,4032.,4.8,0.,4.8,0.,4.8
1979-07-13 12:07:57.830 ,6,0,0.,4.8,4032.,4.8,0.,4.8,0.,4.8
1979-07-13 12:08:02.630 ,5,0,0.,4.8,176.,4.8,0.,4.8,0.,4.8
1979-07-13 12:08:07.430 ,5,0,0.,4.8,352.,4.8,0.,4.8,0.,4.8
1979-07-13 12:08:12.230 ,5,0,0.,4.8,784.,4.8,0.,4.8,0.,4.8
1979-07-13 12:08:17.030 ,5,0,0.,4.8,1024.,4.8,0.,4.8,0.,4.8
1979-07-13 12:08:21.830 ,5,0,0.,4.8,1024.,4.8,0.,4.8,0.,4.8
1979-07-13 12:08:26.630 ,5,0,0.,4.8,1024.,4.8,0.,4.8,0.,4.8
1979-07-13 12:08:31.430 ,5,0,0.,4.8,1184.,4.8,0.,4.8,0.,4.8
1979-07-13 12:08:36.230 ,5,0,0.,4.8,1120.,4.8,0.,4.8,0.,4.8
1979-07-13 12:08:41.030 ,5,0,0.,4.8,1088.,4.8,0.,4.8,0.,4.8
1979-07-13 12:08:45.830 ,5,0,0.,4.8,992.,4.8,0.,4.8,0.,4.8
1979-07-13 12:08:50.630 ,4,0,0.,4.8,992.,4.8,0.,4.8,0.,4.8
1979-07-13 12:08:55.430 ,4,0,0.,4.8,928.,4.8,0.,4.8,0.,4.8
1979-07-13 12:09:00.230 ,4,0,0.,4.8,624.,4.8,0.,4.8,0.,4.8
1979-07-13 12:09:05.030 ,4,0,0.,4.8,784.,4.8,0.,4.8,0.,4.8
1979-07-13 12:09:09.830 ,4,0,0.,4.8,656.,4.8,0.,4.8,0.,4.8
1979-07-13 12:09:14.630 ,4,0,0.,4.8,528.,4.8,1.,4.8,0.,4.8
1979-07-13 12:09:19.430 ,4,0,0.,4.8,400.,4.8,0.,4.8,0.,4.8
1979-07-13 12:09:24.230 ,4,0,0.,4.8,488.,4.8,0.,4.8,0.,4.8
1979-07-13 12:09:29.030 ,4,0,0.,4.8,272.,4.8,0.,4.8,0.,4.8
1979-07-13 12:09:33.830 ,4,0,0.,4.8,184.,4.8,0.,4.8,0.,4.8
1979-07-13 12:09:38.630 ,3,0,0.,4.8,4032.,4.8,0.,4.8,0.,4.8
1979-07-13 12:09:43.430 ,3,0,0.,4.8,4032.,4.8,0.,4.8,0.,4.8
1979-07-13 12:09:48.230 ,3,0,0.,4.8,3584.,4.8,0.,4.8,0.,4.8
1979-07-13 12:09:53.030 ,3,0,0.,4.8,3648.,4.8,0.,4.8,0.,4.8
1979-07-13 12:09:57.830 ,3,0,0.,4.8,3520.,4.8,0.,4.8,0.,4.8
1979-07-13 12:10:02.630 ,3,0,0.,4.8,3200.,4.8,0.,4.8,0.,4.8
1979-07-13 12:10:07.430 ,3,0,0.,4.8,3136.,4.8,0.,4.8,0.,4.8
1979-07-13 12:10:12.230 ,3,0,0.,4.8,3136.,4.8,0.,4.8,0.,4.8
1979-07-13 12:10:17.030 ,3,0,0.,4.8,3328.,4.8,0.,4.8,0.,4.8
1979-07-13 12:10:21.830 ,3,0,0.,4.8,3072.,4.8,0.,4.8,0.,4.8
1979-07-13 12:10:28.430 ,2,0,0.,4.8,3392.,4.8,0.,4.8,0.,4.8
1979-07-13 12:10:33.230 ,2,0,0.,4.8,3200.,4.8,0.,4.8,0.,4.8
1979-07-13 12:10:38.030 ,2,0,0.,4.8,3136.,4.8,0.,4.8,0.,4.8
1979-07-13 12:10:42.830 ,2,0,0.,4.8,3328.,4.8,0.,4.8,0.,4.8
1979-07-13 12:10:47.630 ,2,0,0.,4.8,3328.,4.8,0.,4.8,0.,4.8
1979-07-13 12:10:50.630 ,2,0,0.,4.8,3328.,4.8,0.,4.8,0.,4.8
1979-07-13 12:10:55.430 ,2,0,0.,4.8,3200.,4.8,0.,4.8,0.,4.8
1979-07-13 12:11:00.230 ,2,0,0.,4.8,3072.,4.8,0.,4.8,0.,4.8
1979-07-13 12:11:05.030 ,2,0,0.,4.8,3136.,4.8,0.,4.8,0.,4.8
1979-07-13 12:11:09.830 ,2,0,0.,4.8,2880.,4.8,1.,4.8,0.,4.8
1979-07-13 12:11:14.630 ,1,0,0.,4.8,2752.,4.8,0.,4.8,0.,4.8
1979-07-13 12:11:19.430 ,1,0,0.,4.8,2688.,4.8,0.,4.8,0.,4.8
1979-07-13 12:11:24.230 ,1,0,0.,4.8,2624.,4.8,0.,4.8,0.,4.8
1979-07-13 12:11:29.030 ,1,0,0.,4.8,2496.,4.8,0.,4.8,0.,4.8
1979-07-13 12:11:33.830 ,1,0,0.,4.8,2560.,4.8,0.,4.8,0.,4.8
1979-07-13 12:11:38.630 ,1,0,0.,4.8,2624.,4.8,0.,4.8,0.,4.8
1979-07-13 12:11:43.430 ,1,0,0.,4.8,2624.,4.8,0.,4.8,0.,4.8
1979-07-13 12:11:48.230 ,1,0,0.,4.8,2752.,4.8,0.,4.8,0.,4.8
1979-07-13 12:11:53.030 ,1,0,0.,4.8,2816.,4.8,0.,4.8,0.,4.8
1979-07-13 12:11:57.830 ,1,0,0.,4.8,3008.,4.8,1.,4.8,0.,4.8
1979-07-13 12:12:02.630 ,0,0,0.,4.8,3136.,4.8,0.,4.8,0.,4.8
1979-07-13 12:12:07.430 ,0,0,0.,4.8,3392.,4.8,0.,4.8,0.,4.8
1979-07-13 12:12:12.230 ,0,0,0.,4.8,3648.,4.8,0.,4.8,0.,4.8
1979-07-13 12:12:17.030 ,0,0,0.,4.8,3904.,4.8,0.,4.8,0.,4.8
1979-07-13 12:12:21.830 ,0,0,0.,4.8,3904.,4.8,0.,4.8,0.,4.8
1979-07-13 12:12:26.630 ,0,0,0.,4.8,3968.,4.8,0.,4.8,0.,4.8
1979-07-13 12:12:31.430 ,0,0,0.,4.8,3968.,4.8,0.,4.8,0.,4.8
1979-07-13 12:12:36.230 ,0,0,0.,4.8,90.,4.8,0.,4.8,0.,4.8
1979-07-13 12:12:41.030 ,0,0,0.,4.8,280.,4.8,1.,4.8,0.,4.8
1979-07-13 12:12:45.830 ,0,0,0.,4.8,384.,4.8,0.,4.8,0.,4.8
1979-07-13 12:12:50.630 ,0,0,0.,4.8,280.,4.8,0.,4.8,0.,4.8
1979-07-13 12:12:55.430 ,0,0,0.,4.8,336.,4.8,0.,4.8,0.,4.8
1979-07-13 12:13:00.230 ,0,0,0.,4.8,544.,4.8,0.,4.8,0.,4.8
1979-07-13 12:13:05.030 ,0,0,0.,4.8,656.,4.8,0.,4.8,0.,4.8
1979-07-13 12:13:09.830 ,0,0,0.,4.8,480.,4.8,0.,4.8,0.,4.8
1979-07-13 12:13:14.630 ,0,0,0.,4.8,376.,4.8,0.,4.8,0.,4.8
1979-07-13 12:13:19.430 ,0,0,0.,4.8,352.,4.8,0.,4.8,0.,4.8
1979-07-13 12:13:24.230 ,0,0,0.,4.8,236.,4.8,0.,4.8,0.,4.8
1979-07-13 12:13:29.030 ,0,0,0.,4.8,216.,4.8,0.,4.8,0.,4.8
1979-07-13 12:13:33.830 ,0,0,0.,4.8,152.,4.8,1.,4.8,0.,4.8
1979-07-13 12:13:38.630 ,1,0,0.,4.8,296.,4.8,0.,4.8,0.,4.8
1979-07-13 12:13:43.430 ,1,0,0.,4.8,368.,4.8,0.,4.8,0.,4.8
1979-07-13 12:13:48.230 ,1,0,0.,4.8,53.,4.8,0.,4.8,0.,4.8
1979-07-13 12:13:53.030 ,1,0,0.,4.8,208.,4.8,0.,4.8,0.,4.8
1979-07-13 12:13:57.830 ,1,0,0.,4.8,408.,4.8,0.,4.8,0.,4.8
1979-07-13 12:14:02.630 ,1,0,0.,4.8,384.,4.8,0.,4.8,0.,4.8
1979-07-13 12:14:07.430 ,1,0,0.,4.8,480.,4.8,0.,4.8,0.,4.8
1979-07-13 12:14:12.230 ,1,0,0.,4.8,784.,4.8,0.,4.8,0.,4.8
1979-07-13 12:14:17.030 ,1,0,0.,4.8,800.,4.8,0.,4.8,0.,4.8
1979-07-13 12:14:21.830 ,1,0,0.,4.8,928.,4.8,0.,4.8,0.,4.8
1979-07-13 12:14:26.630 ,2,0,0.,4.8,928.,4.8,0.,4.8,0.,4.8
1979-07-13 12:14:31.430 ,2,0,0.,4.8,768.,4.8,0.,4.8,0.,4.8
1979-07-13 12:14:36.230 ,2,0,0.,4.8,672.,4.8,0.,4.8,0.,4.8
1979-07-13 12:14:41.030 ,2,0,0.,4.8,704.,4.8,0.,4.8,0.,4.8
1979-07-13 12:14:45.830 ,2,0,0.,4.8,752.,4.8,0.,4.8,0.,4.8
1979-07-13 12:14:50.630 ,0,0,0.,4.8,736.,4.8,0.,4.8,0.,4.8
1979-07-13 12:14:55.430 ,0,0,0.,4.8,816.,4.8,0.,4.8,0.,4.8
1979-07-13 12:15:00.230 ,0,0,0.,4.8,832.,4.8,0.,4.8,0.,4.8
1979-07-13 12:15:05.030 ,0,0,0.,4.8,736.,4.8,0.,4.8,0.,4.8
1979-07-13 12:15:09.830 ,0,0,,0,,0,,0,,0
1979-07-13 12:15:14.630 ,3,0,0.,4.8,624.,4.8,0.,4.8,0.,4.8
1979-07-13 12:15:19.430 ,3,0,0.,4.8,560.,4.8,0.,4.8,0.,4.8
1979-07-13 12:15:24.230 ,3,0,0.,4.8,848.,4.8,0.,4.8,0.,4.8
1979-07-13 12:15:29.030 ,3,0,0.,4.8,704.,4.8,0.,4.8,0.,4.8
1979-07-13 12:15:33.830 ,3,0,0.,4.8,688.,4.8,0.,4.8,0.,4.8
1979-07-13 12:15:38.630 ,3,0,0.,4.8,800.,4.8,0.,4.8,0.,4.8
1979-07-13 12:15:43.430 ,3,0,0.,4.8,1024.,4.8,0.,4.8,0.,4.8
1979-07-13 12:15:48.230 ,3,0,0.,4.8,1504.,4.8,0.,4.8,0.,4.8
1979-07-13 12:15:53.030 ,3,0,0.,4.8,2304.,4.8,0.,4.8,0.,4.8
1979-07-13 12:15:57.830 ,3,0,0.,4.8,2880.,4.8,0.,4.8,0.,4.8
1979-07-13 12:16:02.630 ,4,0,0.,4.8,3072.,4.8,0.,4.8,0.,4.8
1979-07-13 12:16:07.430 ,4,0,0.,4.8,26.,4.8,0.,4.8,0.,4.8
1979-07-13 12:16:12.230 ,4,0,0.,4.8,672.,4.8,0.,4.8,0.,4.8
1979-07-13 12:16:17.030 ,4,0,0.,4.8,1312.,4.8,0.,4.8,0.,4.8
1979-07-13 12:16:21.830 ,4,0,0.,4.8,1856.,4.8,0.,4.8,0.,4.8
1979-07-13 12:16:26.630 ,4,0,0.,4.8,2176.,4.8,0.,4.8,0.,4.8
1979-07-13 12:16:31.430 ,4,0,0.,4.8,2304.,4.8,0.,4.8,0.,4.8
1979-07-13 12:16:36.230 ,4,0,0.,4.8,2880.,4.8,0.,4.8,0.,4.8
1979-07-13 12:16:41.030 ,4,0,0.,4.8,3008.,4.8,0.,4.8,0.,4.8
1979-07-13 12:16:45.830 ,4,0,0.,4.8,2816.,4.8,0.,4.8,0.,4.8
1979-07-13 12:16:50.630 ,5,0,0.,4.8,2880.,4.8,0.,4.8,0.,4.8
1979-07-13 12:16:55.430 ,5,0,0.,4.8,2816.,4.8,1.,4.8,0.,4.8
1979-07-13 12:17:00.230 ,5,0,0.,4.8,2560.,4.8,1.,4.8,0.,4.8
1979-07-13 12:17:05.030 ,5,0,0.,4.8,1920.,4.8,0.,4.8,0.,4.8
1979-07-13 12:17:09.830 ,5,0,0.,4.8,1344.,4.8,0.,4.8,0.,4.8
1979-07-13 12:17:14.630 ,5,0,0.,4.8,832.,4.8,0.,4.8,0.,4.8
1979-07-13 12:17:19.430 ,5,0,0.,4.8,624.,4.8,0.,4.8,0.,4.8
1979-07-13 12:17:24.230 ,5,0,0.,4.8,152.,4.8,0.,4.8,0.,4.8
1979-07-13 12:17:29.030 ,5,0,0.,4.8,448.,4.8,0.,4.8,0.,4.8
1979-07-13 12:17:33.830 ,5,0,0.,4.8,624.,4.8,0.,4.8,0.,4.8
1979-07-13 12:17:38.630 ,6,0,0.,4.8,416.,4.8,0.,4.8,0.,4.8
1979-07-13 12:17:43.430 ,6,0,0.,4.8,3904.,4.8,0.,4.8,0.,4.8
1979-07-13 12:17:48.230 ,6,0,0.,4.8,3072.,4.8,0.,4.8,0.,4.8
1979-07-13 12:17:53.030 ,6,0,0.,4.8,2752.,4.8,0.,4.8,0.,4.8
1979-07-13 12:17:57.830 ,6,0,0.,4.8,2496.,4.8,0.,4.8,0.,4.8
1979-07-13 12:18:02.630 ,6,0,0.,4.8,2112.,4.8,0.,4.8,0.,4.8
1979-07-13 12:18:07.430 ,6,0,0.,4.8,1792.,4.8,0.,4.8,0.,4.8
1979-07-13 12:18:12.230 ,6,0,0.,4.8,1760.,4.8,0.,4.8,0.,4.8
1979-07-13 12:18:17.030 ,6,0,0.,4.8,1600.,4.8,0.,4.8,0.,4.8
1979-07-13 12:18:21.830 ,6,0,0.,4.8,1760.,4.8,1.,4.8,0.,4.8
1979-07-13 12:18:26.630 ,7,0,0.,4.8,1632.,4.8,0.,4.8,0.,4.8
1979-07-13 12:18:31.430 ,7,0,0.,4.8,1536.,4.8,0.,4.8,0.,4.8
1979-07-13 12:18:36.230 ,7,0,0.,4.8,1312.,4.8,0.,4.8,0.,4.8
1979-07-13 12:18:41.030 ,7,0,0.,4.8,1216.,4.8,0.,4.8,0.,4.8
1979-07-13 12:18:45.830 ,7,0,0.,4.8,992.,4.8,0.,4.8,0.,4.8
1979-07-13 12:18:50.630 ,7,0,0.,4.8,832.,4.8,0.,4.8,0.,4.8
1979-07-13 12:18:55.430 ,7,0,0.,4.8,496.,4.8,0.,4.8,0.,4.8
1979-07-13 12:19:00.230 ,7,0,0.,4.8,256.,4.8,0.,4.8,0.,4.8
1979-07-13 12:19:05.030 ,7,0,0.,4.8,128.,4.8,0.,4.8,0.,4.8
1979-07-13 12:19:09.830 ,7,0,0.,4.8,33.,4.8,0.,4.8,0.,4.8
1979-07-13 12:19:14.630 ,3,1,0.,4.8,272.,4.8,0.,4.8,0.,4.8
1979-07-13 12:19:19.430 ,3,1,0.,4.8,688.,4.8,0.,4.8,0.,4.8
1979-07-13 12:19:24.230 ,3,1,0.,4.8,1248.,4.8,0.,4.8,0.,4.8
1979-07-13 12:19:29.030 ,3,1,0.,4.8,1344.,4.8,0.,4.8,0.,4.8
1979-07-13 12:19:33.830 ,3,1,0.,4.8,672.,4.8,0.,4.8,0.,4.8
1979-07-13 12:19:38.630 ,0,1,0.,4.8,720.,4.8,0.,4.8,0.,4.8
1979-07-13 12:19:43.430 ,0,1,0.,4.8,608.,4.8,0.,4.8,0.,4.8
1979-07-13 12:19:48.230 ,0,1,0.,4.8,928.,4.8,0.,4.8,0.,4.8
1979-07-13 12:19:53.030 ,0,1,0.,4.8,1088.,4.8,0.,4.8,0.,4.8
1979-07-13 12:19:57.830 ,0,1,0.,4.8,1120.,4.8,0.,4.8,0.,4.8
1979-07-13 12:20:02.630 ,4,1,0.,4.8,1120.,4.8,0.,4.8,0.,4.8
1979-07-13 12:20:07.430 ,4,1,0.,4.8,832.,4.8,0.,4.8,0.,4.8
1979-07-13 12:20:12.230 ,4,1,0.,4.8,1120.,4.8,0.,4.8,0.,4.8
1979-07-13 12:20:17.030 ,4,1,0.,4.8,1280.,4.8,0.,4.8,0.,4.8
1979-07-13 12:20:21.830 ,4,1,0.,4.8,1824.,4.8,0.,4.8,0.,4.8
1979-07-13 12:20:26.630 ,7,1,0.,4.8,2112.,4.8,0.,4.8,0.,4.8
1979-07-13 12:20:31.430 ,7,1,0.,4.8,2176.,4.8,0.,4.8,0.,4.8
1979-07-13 12:20:36.230 ,7,1,0.,4.8,2112.,4.8,0.,4.8,0.,4.8
1979-07-13 12:20:41.030 ,7,1,0.,4.8,1984.,4.8,0.,4.8,0.,4.8
1979-07-13 12:20:45.830 ,7,1,0.,4.8,2368.,4.8,0.,4.8,0.,4.8
1979-07-13 12:20:50.630 ,3,1,0.,4.8,2304.,4.8,0.,4.8,0.,4.8
1979-07-13 12:20:55.430 ,3,1,0.,4.8,3008.,4.8,0.,4.8,0.,4.8
1979-07-13 12:21:00.230 ,3,1,0.,4.8,3584.,4.8,0.,4.8,0.,4.8
1979-07-13 12:21:05.030 ,3,1,0.,4.8,3840.,4.8,0.,4.8,0.,4.8
1979-07-13 12:21:09.830 ,3,1,0.,4.8,2560.,4.8,0.,4.8,0.,4.8
1979-07-13 12:21:14.630 ,0,1,0.,4.8,2112.,4.8,0.,4.8,0.,4.8
1979-07-13 12:21:19.430 ,0,1,0.,4.8,1824.,4.8,0.,4.8,0.,4.8
1979-07-13 12:21:24.230 ,0,1,0.,4.8,1856.,4.8,0.,4.8,0.,4.8
1979-07-13 12:21:29.030 ,0,1,0.,4.8,2368.,4.8,0.,4.8,0.,4.8
1979-07-13 12:21:33.830 ,0,1,0.,4.8,2432.,4.8,0.,4.8,0.,4.8
1979-07-13 12:21:38.630 ,4,1,0.,4.8,2176.,4.8,0.,4.8,0.,4.8
1979-07-13 12:21:43.430 ,4,1,0.,4.8,2432.,4.8,0.,4.8,0.,4.8
1979-07-13 12:21:48.230 ,4,1,0.,4.8,2432.,4.8,0.,4.8,0.,4.8
1979-07-13 12:21:53.030 ,4,1,0.,4.8,2688.,4.8,0.,4.8,0.,4.8
1979-07-13 12:21:57.830 ,4,1,0.,4.8,3648.,4.8,0.,4.8,0.,4.8
1979-07-13 12:22:02.630 ,7,1,0.,4.8,3904.,4.8,0.,4.8,0.,4.8
1979-07-13 12:22:07.430 ,7,1,0.,4.8,3584.,4.8,0.,4.8,0.,4.8
1979-07-13 12:22:12.230 ,7,1,0.,4.8,3136.,4.8,0.,4.8,0.,4.8
1979-07-13 12:22:17.030 ,7,1,0.,4.8,2816.,4.8,0.,4.8,0.,4.8
1979-07-13 12:22:21.830 ,7,1,0.,4.8,3008.,4.8,0.,4.8,0.,4.8
1979-07-13 12:22:26.630 ,3,1,0.,4.8,3072.,4.8,0.,4.8,0.,4.8
1979-07-13 12:22:31.430 ,3,1,0.,4.8,3520.,4.8,0.,4.8,0.,4.8
1979-07-13 12:22:36.230 ,3,1,0.,4.8,4032.,4.8,0.,4.8,0.,4.8
1979-07-13 12:22:41.030 ,3,1,0.,4.8,3904.,4.8,0.,4.8,0.,4.8
1979-07-13 12:22:45.830 ,3,1,0.,4.8,2752.,4.8,0.,4.8,0.,4.8
1979-07-13 12:22:50.630 ,0,1,0.,4.8,2432.,4.8,0.,4.8,0.,4.8
1979-07-13 12:22:55.430 ,0,1,0.,4.8,2048.,4.8,0.,4.8,0.,4.8
1979-07-13 12:23:00.230 ,0,1,0.,4.8,2176.,4.8,0.,4.8,0.,4.8
1979-07-13 12:23:05.030 ,0,1,0.,4.8,2432.,4.8,0.,4.8,0.,4.8
1979-07-13 12:23:09.830 ,0,1,0.,4.8,2752.,4.8,0.,4.8,0.,4.8
1979-07-13 12:23:14.630 ,4,1,0.,4.8,2496.,4.8,0.,4.8,0.,4.8
1979-07-13 12:23:19.430 ,4,1,0.,4.8,2112.,4.8,0.,4.8,0.,4.8
1979-07-13 12:23:24.230 ,4,1,0.,4.8,2240.,4.8,0.,4.8,0.,4.8
1979-07-13 12:23:29.030 ,4,1,0.,4.8,2368.,4.8,0.,4.8,0.,4.8
1979-07-13 12:23:33.830 ,4,1,0.,4.8,3008.,4.8,0.,4.8,0.,4.8
1979-07-13 12:23:38.630 ,7,1,0.,4.8,2816.,4.8,0.,4.8,0.,4.8
1979-07-13 12:23:43.430 ,7,1,0.,4.8,2624.,4.8,0.,4.8,0.,4.8
1979-07-13 12:23:48.230 ,7,1,0.,4.8,2304.,4.8,0.,4.8,0.,4.8
1979-07-13 12:23:53.030 ,7,1,0.,4.8,2112.,4.8,0.,4.8,0.,4.8
1979-07-13 12:23:57.830 ,7,1,0.,4.8,2112.,4.8,0.,4.8,0.,4.8
1979-07-13 12:24:02.630 ,3,1,0.,4.8,2048.,4.8,0.,4.8,0.,4.8
1979-07-13 12:24:07.430 ,3,1,0.,4.8,2560.,4.8,0.,4.8,0.,4.8
1979-07-13 12:24:12.230 ,3,1,0.,4.8,3200.,4.8,0.,4.8,0.,4.8
1979-07-13 12:24:17.030 ,3,1,0.,4.8,2880.,4.8,0.,4.8,0.,4.8
1979-07-13 12:24:21.830 ,3,1,0.,4.8,1536.,4.8,0.,4.8,0.,4.8
1979-07-13 12:24:26.630 ,0,1,0.,4.8,1536.,4.8,0.,4.8,0.,4.8
1979-07-13 12:24:31.430 ,0,1,0.,4.8,1312.,4.8,0.,4.8,0.,4.8
1979-07-13 12:24:36.230 ,0,1,0.,4.8,1088.,4.8,0.,4.8,0.,4.8
1979-07-13 12:24:41.030 ,0,1,0.,4.8,960.,4.8,0.,4.8,0.,4.8
1979-07-13 12:24:45.830 ,0,1,0.,4.8,1088.,4.8,0.,4.8,0.,4.8
1979-07-13 12:24:50.630 ,4,1,0.,4.8,624.,4.8,1.,4.8,0.,4.8
1979-07-13 12:24:55.430 ,4,1,0.,4.8,496.,4.8,0.,4.8,0.,4.8
1979-07-13 12:25:00.230 ,4,1,0.,4.8,424.,4.8,0.,4.8,0.,4.8
1979-07-13 12:25:05.030 ,4,1,0.,4.8,504.,4.8,0.,4.8,0.,4.8
1979-07-13 12:25:09.830 ,4,1,0.,4.8,1408.,4.8,0.,4.8,0.,4.8
1979-07-13 12:25:14.630 ,7,1,0.,4.8,1248.,4.8,0.,4.8,0.,4.8
1979-07-13 12:25:19.430 ,7,1,0.,4.8,1152.,4.8,0.,4.8,0.,4.8
1979-07-13 12:25:24.230 ,7,1,0.,4.8,408.,4.8,0.,4.8,0.,4.8
1979-07-13 12:25:29.030 ,7,1,0.,4.8,3712.,4.8,0.,4.8,0.,4.8
1979-07-13 12:25:33.830 ,7,1,0.,4.8,3136.,4.8,0.,4.8,0.,4.8
1979-07-13 12:25:38.630 ,3,1,0.,4.8,2688.,4.8,0.,4.8,0.,4.8
1979-07-13 12:25:43.430 ,3,1,0.,4.8,2752.,4.8,0.,4.8,0.,4.8
1979-07-13 12:25:48.230 ,3,1,0.,4.8,2752.,4.8,0.,4.8,0.,4.8
1979-07-13 12:25:53.030 ,3,1,0.,4.8,2688.,4.8,0.,4.8,0.,4.8
1979-07-13 12:25:57.830 ,3,1,0.,4.8,2176.,4.8,0.,4.8,0.,4.8
1979-07-13 12:26:02.630 ,0,1,0.,4.8,2112.,4.8,0.,4.8,0.,4.8
1979-07-13 12:26:07.430 ,0,1,0.,4.8,2304.,4.8,0.,4.8,0.,4.8
1979-07-13 12:26:12.230 ,0,1,0.,4.8,2368.,4.8,0.,4.8,0.,4.8
1979-07-13 12:26:17.030 ,0,1,0.,4.8,2304.,4.8,0.,4.8,0.,4.8
1979-07-13 12:26:21.830 ,0,1,0.,4.8,2496.,4.8,0.,4.8,0.,4.8
1979-07-13 12:26:26.630 ,4,1,0.,4.8,2688.,4.8,0.,4.8,0.,4.8
1979-07-13 12:26:31.430 ,4,1,0.,4.8,3136.,4.8,0.,4.8,0.,4.8
1979-07-13 12:26:36.230 ,4,1,0.,4.8,3072.,4.8,0.,4.8,0.,4.8
1979-07-13 12:26:41.030 ,4,1,0.,4.8,3840.,4.8,0.,4.8,0.,4.8
1979-07-13 12:26:45.830 ,4,1,0.,4.8,912.,4.8,0.,4.8,0.,4.8
1979-07-13 12:26:50.630 ,7,1,0.,4.8,1024.,4.8,0.,4.8,0.,4.8
1979-07-13 12:26:55.430 ,7,1,0.,4.8,864.,4.8,0.,4.8,0.,4.8
1979-07-13 12:27:00.230 ,7,1,0.,4.8,164.,4.8,0.,4.8,0.,4.8
1979-07-13 12:27:05.030 ,7,1,0.,4.8,4032.,4.8,0.,4.8,0.,4.8
1979-07-13 12:27:09.830 ,7,1,0.,4.8,3712.,4.8,0.,4.8,0.,4.8
1979-07-13 12:27:14.630 ,3,1,0.,4.8,3968.,4.8,0.,4.8,0.,4.8
1979-07-13 12:27:19.430 ,3,1,0.,4.8,200.,4.8,0.,4.8,0.,4.8
1979-07-13 12:27:24.230 ,3,1,0.,4.8,672.,4.8,0.,4.8,0.,4.8
1979-07-13 12:27:29.030 ,3,1,0.,4.8,816.,4.8,0.,4.8,0.,4.8
1979-07-13 12:27:33.830 ,3,1,0.,4.8,272.,4.8,0.,4.8,0.,4.8
1979-07-13 12:27:38.630 ,0,1,0.,4.8,3712.,4.8,0.,4.8,0.,4.8
1979-07-13 12:27:43.430 ,0,1,0.,4.8,3712.,4.8,0.,4.8,0.,4.8
1979-07-13 12:27:48.230 ,0,1,0.,4.8,3648.,4.8,0.,4.8,0.,4.8
1979-07-13 12:27:53.030 ,0,1,0.,4.8,3840.,4.8,0.,4.8,0.,4.8
1979-07-13 12:27:57.830 ,0,1,0.,4.8,3712.,4.8,0.,4.8,0.,4.8
1979-07-13 12:28:02.630 ,4,1,0.,4.8,3392.,4.8,0.,4.8,0.,4.8
1979-07-13 12:28:07.430 ,4,1,0.,4.8,3072.,4.8,0.,4.8,0.,4.8
1979-07-13 12:28:12.230 ,4,1,0.,4.8,3392.,4.8,0.,4.8,0.,4.8
1979-07-13 12:28:17.030 ,4,1,0.,4.8,3712.,4.8,0.,4.8,0.,4.8
1979-07-13 12:28:21.830 ,4,1,0.,4.8,472.,4.8,0.,4.8,0.,4.8
1979-07-13 12:28:26.630 ,7,1,0.,4.8,512.,4.8,0.,4.8,0.,4.8
1979-07-13 12:28:31.430 ,7,1,0.,4.8,528.,4.8,0.,4.8,0.,4.8
1979-07-13 12:28:36.230 ,7,1,0.,4.8,352.,4.8,0.,4.8,0.,4.8
1979-07-13 12:28:41.030 ,7,1,0.,4.8,200.,4.8,0.,4.8,0.,4.8
1979-07-13 12:28:45.830 ,7,1,0.,4.8,384.,4.8,0.,4.8,0.,4.8
1979-07-13 12:28:50.630 ,3,1,0.,4.8,592.,4.8,0.,4.8,0.,4.8
1979-07-13 12:28:55.430 ,3,1,0.,4.8,1088.,4.8,0.,4.8,0.,4.8
1979-07-13 12:29:00.230 ,3,1,0.,4.8,1632.,4.8,0.,4.8,0.,4.8
1979-07-13 12:29:05.030 ,3,1,0.,4.8,1856.,4.8,0.,4.8,0.,4.8
1979-07-13 12:29:09.830 ,3,1,0.,4.8,1056.,4.8,0.,4.8,0.,4.8
1979-07-13 12:29:14.630 ,0,1,0.,4.8,960.,4.8,0.,4.8,0.,4.8
1979-07-13 12:29:19.430 ,0,1,0.,4.8,784.,4.8,0.,4.8,0.,4.8
1979-07-13 12:29:24.230 ,0,1,0.,4.8,608.,4.8,1.,4.8,0.,4.8
1979-07-13 12:29:29.030 ,0,1,0.,4.8,496.,4.8,0.,4.8,0.,4.8
1979-07-13 12:29:33.830 ,0,1,0.,4.8,336.,4.8,0.,4.8,0.,4.8
1979-07-13 12:29:38.630 ,0,0,0.,4.8,148.,4.8,0.,4.8,0.,4.8
1979-07-13 12:29:43.430 ,0,0,0.,4.8,3968.,4.8,0.,4.8,0.,4.8
1979-07-13 12:29:48.230 ,0,0,0.,4.8,3648.,4.8,0.,4.8,0.,4.8
1979-07-13 12:29:53.030 ,0,0,0.,4.8,3392.,4.8,0.,4.8,0.,4.8
1979-07-13 12:29:57.830 ,0,0,0.,4.8,3776.,4.8,0.,4.8,0.,4.8
1979-07-13 12:30:02.630 ,0,0,0.,4.8,3648.,4.8,0.,4.8,0.,4.8
1979-07-13 12:30:07.430 ,0,0,0.,4.8,3200.,4.8,0.,4.8,0.,4.8
1979-07-13 12:30:12.230 ,0,0,0.,4.8,3136.,4.8,0.,4.8,0.,4.8
1979-07-13 12:30:17.030 ,0,0,0.,4.8,3328.,4.8,0.,4.8,0.,4.8
1979-07-13 12:30:21.830 ,0,0,0.,4.8,3712.,4.8,0.,4.8,0.,4.8
1979-07-13 12:30:26.630 ,5,0,0.,4.8,51.,4.8,0.,4.8,0.,4.8
1979-07-13 12:30:31.430 ,5,0,0.,4.8,1024.,4.8,0.,4.8,0.,4.8
1979-07-13 12:30:36.230 ,5,0,0.,4.8,2816.,4.8,0.,4.8,0.,4.8
1979-07-13 12:30:41.030 ,5,0,0.,4.8,72.,4.8,0.,4.8,0.,4.8
1979-07-13 12:30:45.830 ,5,0,0.,4.8,1120.,4.8,0.,4.8,0.,4.8
1979-07-13 12:30:50.630 ,5,0,0.,4.8,1824.,4.8,0.,4.8,0.,4.8
1979-07-13 12:30:55.430 ,5,0,0.,4.8,1696.,4.8,0.,4.8,0.,4.8
1979-07-13 12:31:00.230 ,5,0,0.,4.8,1184.,4.8,1.,4.8,0.,4.8
1979-07-13 12:31:05.030 ,5,0,0.,4.8,47.,4.8,0.,4.8,0.,4.8
1979-07-13 12:31:09.830 ,5,0,0.,4.8,3072.,4.8,0.,4.8,0.,4.8
1979-07-13 12:31:14.630 ,4,0,0.,4.8,1952.,4.8,0.,4.8,0.,4.8
1979-07-13 12:31:19.430 ,4,0,0.,4.8,960.,4.8,0.,4.8,0.,4.8
1979-07-13 12:31:24.230 ,4,0,0.,4.8,4032.,4.8,0.,4.8,0.,4.8
1979-07-13 12:31:29.030 ,4,0,0.,4.8,3456.,4.8,0.,4.8,0.,4.8
1979-07-13 12:31:33.830 ,4,0,0.,4.8,3136.,4.8,0.,4.8,0.,4.8
1979-07-13 12:31:38.630 ,4,0,0.,4.8,3200.,4.8,0.,4.8,0.,4.8
1979-07-13 12:31:43.430 ,4,0,0.,4.8,3008.,4.8,0.,4.8,0.,4.8
1979-07-13 12:31:48.230 ,4,0,0.,4.8,3136.,4.8,0.,4.8,0.,4.8
1979-07-13 12:31:53.030 ,4,0,0.,4.8,3264.,4.8,0.,4.8,0.,4.8